• In Hungary
  • List of Countries
  • For 7 days
  • Water Temperature
  • Satellite Maps
  • Weather Map
  • News
  • Weather Widgets
  • user-avatar
    Login

    Hourly Weather Parfenovka

    Today, 22 May, Tuesday

    Time Temperature Precipitation Wind Pressure Humidity
    00:00 +11°C° 0 mm 4 mps 764 mmHg 75%
    01:00 +10°C° 0 mm 4 mps 764 mmHg 75%
    02:00 +10°C° 0 mm 4 mps 764 mmHg 76%
    03:00 +8°C° 0 mm 4 mps 765 mmHg 77%
    04:00 +10°C° 0 mm 4 mps 765 mmHg 73%
    05:00 +11°C° 0 mm 4 mps 765 mmHg 68%
    06:00 +12°C° 0 mm 4 mps 766 mmHg 64%
    07:00 +13°C° 0 mm 5 mps 766 mmHg 58%
    08:00 +15°C° 0 mm 5 mps 766 mmHg 51%
    09:00 +17°C° 0 mm 5 mps 766 mmHg 45%
    10:00 +19°C° 0 mm 4 mps 766 mmHg 42%
    11:00 +20°C° 0 mm 4 mps 766 mmHg 39%
    12:00 +22°C° 0 mm 4 mps 766 mmHg 36%
    13:00 +22°C° 0 mm 4 mps 766 mmHg 36%
    14:00 +22°C° 0 mm 3 mps 766 mmHg 36%
    15:00 +24°C° 0 mm 3 mps 766 mmHg 37%
    16:00 +22°C° 0 mm 3 mps 765 mmHg 41%
    17:00 +21°C° 0 mm 2 mps 765 mmHg 46%
    18:00 +21°C° 0 mm 2 mps 765 mmHg 51%
    19:00 +19°C° 0 mm 2 mps 765 mmHg 54%
    20:00 +17°C° 0 mm 2 mps 766 mmHg 57%
    21:00 +16°C° 0 mm 1 mps 766 mmHg 61%
    22:00 +15°C° 0 mm 1 mps 766 mmHg 62%
    23:00 +15°C° 0 mm 1 mps 766 mmHg 64%

    Tomorrow, 23 May, Wednesday

    Time Temperature Precipitation Wind Pressure Humidity
    00:00 +14°C° 0 mm 1 mps 766 mmHg 65%
    01:00 +14°C° 0 mm 1 mps 766 mmHg 66%
    02:00 +14°C° 0 mm 1 mps 766 mmHg 68%
    03:00 +13°C° 0 mm 1 mps 766 mmHg 69%
    04:00 +15°C° 0 mm 1 mps 766 mmHg 67%
    05:00 +16°C° 0 mm 1 mps 766 mmHg 65%
    06:00 +18°C° 0 mm 1 mps 766 mmHg 63%
    07:00 +20°C° 0 mm 1 mps 766 mmHg 57%
    08:00 +22°C° 0 mm 1 mps 766 mmHg 52%
    09:00 +23°C° 0 mm 1 mps 766 mmHg 47%
    10:00 +24°C° 0 mm 2 mps 766 mmHg 44%
    11:00 +25°C° 0 mm 2 mps 766 mmHg 41%
    12:00 +26°C° 0 mm 2 mps 765 mmHg 39%
    13:00 +27°C° 0 mm 2 mps 765 mmHg 38%
    14:00 +27°C° 0 mm 2 mps 764 mmHg 37%
    15:00 +28°C° 0 mm 2 mps 764 mmHg 37%
    16:00 +27°C° 0 mm 2 mps 764 mmHg 41%
    17:00 +26°C° 0 mm 2 mps 763 mmHg 45%
    18:00 +26°C° 0 mm 1 mps 763 mmHg 49%
    19:00 +24°C° 0 mm 1 mps 763 mmHg 53%
    20:00 +22°C° 0 mm 1 mps 763 mmHg 57%
    21:00 +20°C° 0 mm 1 mps 762 mmHg 61%
    22:00 +20°C° 0 mm 1 mps 762 mmHg 63%
    23:00 +19°C° 0 mm 1 mps 762 mmHg 65%

    Day after tomorrow, 24 May, Thursday

    Time Temperature Precipitation Wind Pressure Humidity
    00:00 +19°C° 0 mm 1 mps 761 mmHg 67%
    01:00 +18°C° 0 mm 1 mps 761 mmHg 68%
    02:00 +17°C° 0 mm 2 mps 761 mmHg 70%
    03:00 +17°C° 0 mm 2 mps 760 mmHg 71%
    04:00 +18°C° 0 mm 2 mps 760 mmHg 69%
    05:00 +19°C° 0 mm 2 mps 760 mmHg 66%
    06:00 +20°C° 0 mm 2 mps 759 mmHg 64%
    07:00 +21°C° 0 mm 2 mps 759 mmHg 58%
    08:00 +24°C° 0 mm 2 mps 759 mmHg 52%
    09:00 +26°C° 0 mm 2 mps 759 mmHg 46%
    10:00 +27°C° 0 mm 2 mps 758 mmHg 43%
    11:00 +28°C° 0 mm 2 mps 758 mmHg 39%
    12:00 +28°C° 0 mm 2 mps 757 mmHg 36%
    13:00 +29°C° 0 mm 2 mps 757 mmHg 36%
    14:00 +29°C° 0 mm 3 mps 756 mmHg 36%
    15:00 +29°C° 0 mm 3 mps 756 mmHg 36%
    16:00 +27°C° 0 mm 3 mps 755 mmHg 43%
    17:00 +26°C° 0 mm 3 mps 755 mmHg 49%
    18:00 +24°C° 0 mm 2 mps 755 mmHg 55%
    19:00 +24°C° 0 mm 2 mps 754 mmHg 55%
    20:00 +23°C° 0 mm 2 mps 754 mmHg 55%
    21:00 +21°C° 0 mm 2 mps 754 mmHg 55%
    22:00 +21°C° 0 mm 2 mps 754 mmHg 58%
    23:00 +20°C° 0 mm 2 mps 753 mmHg 61%

    25 May, Friday

    Time Temperature Precipitation Wind Pressure Humidity
    00:00 +19°C° 0 mm 2 mps 753 mmHg 64%
    01:00 +19°C° 0 mm 2 mps 753 mmHg 68%
    02:00 +18°C° 0 mm 2 mps 752 mmHg 71%
    03:00 +18°C° 0 mm 2 mps 752 mmHg 75%
    04:00 +18°C° 0.1 mm 2 mps 752 mmHg 77%
    05:00 +18°C° 0.1 mm 3 mps 752 mmHg 78%
    06:00 +19°C° 0.1 mm 3 mps 752 mmHg 80%
    07:00 +18°C° 1.1 mm 4 mps 752 mmHg 82%
    08:00 +16°C° 1.1 mm 5 mps 752 mmHg 85%
    09:00 +15°C° 1.1 mm 5 mps 753 mmHg 87%
    10:00 +15°C° 0.2 mm 6 mps 753 mmHg 84%
    11:00 +14°C° 0.2 mm 6 mps 753 mmHg 80%
    12:00 +14°C° 0.2 mm 6 mps 754 mmHg 77%
    13:00 +14°C° 0 mm 7 mps 754 mmHg 73%
    14:00 +14°C° 0 mm 7 mps 754 mmHg 69%
    15:00 +14°C° 0 mm 7 mps 755 mmHg 64%
    16:00 +12°C° 0.1 mm 7 mps 755 mmHg 64%
    17:00 +12°C° 0.1 mm 7 mps 755 mmHg 64%
    18:00 +11°C° 0.1 mm 6 mps 756 mmHg 64%
    19:00 +10°C° 0 mm 6 mps 756 mmHg 63%
    20:00 +9°C° 0 mm 6 mps 756 mmHg 62%
    21:00 +8°C° 0 mm 6 mps 756 mmHg 61%
    22:00 +8°C° 0 mm 6 mps 756 mmHg 61%
    23:00 +7°C° 0 mm 6 mps 756 mmHg 62%

    26 May, Saturday

    Time Temperature Precipitation Wind Pressure Humidity
    00:00 +5°C° 0 mm 6 mps 757 mmHg 62%
    01:00 +5°C° 0 mm 6 mps 757 mmHg 62%
    02:00 +5°C° 0 mm 7 mps 757 mmHg 62%
    03:00 +4°C° 0 mm 7 mps 757 mmHg 62%
    04:00 +5°C° 0 mm 7 mps 758 mmHg 61%
    05:00 +5°C° 0 mm 8 mps 758 mmHg 60%
    06:00 +5°C° 0 mm 9 mps 758 mmHg 59%
    07:00 +6°C° 0 mm 9 mps 758 mmHg 55%
    08:00 +7°C° 0 mm 10 mps 759 mmHg 51%
    09:00 +8°C° 0 mm 10 mps 759 mmHg 47%
    10:00 +9°C° 0 mm 10 mps 759 mmHg 46%
    11:00 +11°C° 0 mm 10 mps 759 mmHg 45%
    12:00 +11°C° 0 mm 10 mps 759 mmHg 44%
    13:00 +11°C° 0 mm 10 mps 760 mmHg 44%
    14:00 +12°C° 0 mm 10 mps 760 mmHg 44%
    15:00 +12°C° 0 mm 10 mps 760 mmHg 44%
    16:00 +11°C° 0 mm 9 mps 760 mmHg 46%
    17:00 +11°C° 0 mm 7 mps 761 mmHg 48%
    18:00 +11°C° 0 mm 6 mps 761 mmHg 51%
    19:00 +9°C° 0 mm 6 mps 761 mmHg 53%
    20:00 +8°C° 0 mm 5 mps 761 mmHg 55%
    21:00 +7°C° 0 mm 5 mps 762 mmHg 57%
    22:00 +7°C° 0 mm 5 mps 761 mmHg 60%
    23:00 +7°C° 0 mm 5 mps 761 mmHg 62%

    27 May, Sunday

    Time Temperature Precipitation Wind Pressure Humidity
    00:00 +6°C° 0 mm 5 mps 761 mmHg 64%
    01:00 +6°C° 0 mm 5 mps 761 mmHg 66%
    02:00 +6°C° 0 mm 5 mps 761 mmHg 67%
    03:00 +5°C° 0 mm 5 mps 761 mmHg 69%
    04:00 +6°C° 0 mm 5 mps 761 mmHg 67%
    05:00 +8°C° 0 mm 5 mps 760 mmHg 65%
    06:00 +9°C° 0 mm 6 mps 760 mmHg 63%
    07:00 +11°C° 0 mm 6 mps 760 mmHg 58%
    08:00 +12°C° 0 mm 7 mps 759 mmHg 53%
    09:00 +15°C° 0 mm 7 mps 759 mmHg 47%
    10:00 +16°C° 0 mm 7 mps 758 mmHg 46%
    11:00 +17°C° 0 mm 7 mps 757 mmHg 45%
    12:00 +20°C° 0 mm 7 mps 757 mmHg 43%
    13:00 +20°C° 0 mm 7 mps 756 mmHg 44%
    14:00 +21°C° 0 mm 7 mps 756 mmHg 44%
    15:00 +21°C° 0 mm 7 mps 755 mmHg 44%
    16:00 +21°C° 0 mm 6 mps 755 mmHg 49%
    17:00 +20°C° 0 mm 5 mps 755 mmHg 55%
    18:00 +19°C° 0 mm 3 mps 755 mmHg 60%
    19:00 +18°C° 0 mm 3 mps 755 mmHg 65%
    20:00 +16°C° 0 mm 2 mps 755 mmHg 70%
    21:00 +15°C° 0 mm 2 mps 755 mmHg 75%
    22:00 +14°C° 0 mm 2 mps 755 mmHg 77%
    23:00 +13°C° 0 mm 3 mps 754 mmHg 80%
    Show more